Location: Prague
(50.0830°N, 14.4670°E)
Time: 05:57:09
(UTC+02:00)

STRAND 1 - Visible Passes

Search period start: 29 March 2023 00:00
Search period end: 08 April 2023 00:00
Orbit: 766 x 780 km, 98.4° (Epoch: 28 March)

Date Brightness Start Highest point End Pass type
(mag) Time Alt. Az. Time Alt. Az. Time Alt. Az.
29 Mar ? 05:16:40 10° E 05:20:13 19° ENE 05:23:45 10° NNE visible
29 Mar ? 20:38:21 10° N 20:43:17 51° WNW 20:48:11 10° SW visible
29 Mar ? 22:20:48 10° NW 22:21:20 10° NW 22:21:52 10° NW visible
30 Mar ? 04:44:56 10° ENE 04:46:20 11° NE 04:47:44 10° NNE visible
30 Mar ? 20:03:48 10° NNE 20:08:56 85° ESE 20:14:02 10° SSW visible
30 Mar ? 21:44:08 10° NNW 21:47:28 18° NW 21:50:47 10° W visible
31 Mar ? 05:45:48 10° ESE 05:50:15 31° ENE 05:54:42 10° N visible
31 Mar ? 21:09:01 10° N 21:13:26 30° WNW 21:17:50 10° WSW visible
01 Apr ? 05:12:50 10° E 05:16:13 18° NE 05:19:35 10° NNE visible
01 Apr ? 20:34:15 10° N 20:39:14 55° WNW 20:44:11 10° SW visible
01 Apr ? 22:16:04 10° NW 22:17:21 11° NW 22:18:36 10° WNW visible
02 Apr ? 04:41:34 10° ENE 04:42:20 10° NE 04:43:07 10° NE visible
02 Apr ? 19:59:44 10° NNE 20:04:52 80° ESE 20:09:58 10° SSW visible
02 Apr ? 21:39:58 10° NNW 21:43:27 19° NW 21:46:56 10° W visible
03 Apr ? 05:41:52 10° ESE 05:46:13 29° ENE 05:50:34 10° N visible
03 Apr ? 21:04:53 10° N 21:09:24 32° WNW 21:13:53 10° SW visible
04 Apr ? 05:09:00 10° E 05:12:12 17° NE 05:15:23 10° NNE visible
04 Apr ? 20:30:09 10° N 20:35:10 59° WNW 20:40:10 10° SSW visible
04 Apr ? 22:11:38 10° NNW 22:13:20 12° NW 22:15:02 10° WNW visible
05 Apr ? 21:35:47 10° NNW 21:39:25 20° WNW 21:43:03 10° WSW visible
06 Apr ? 05:37:56 10° ESE 05:42:10 27° ENE 05:46:25 10° N visible
06 Apr ? 21:00:45 10° N 21:05:20 35° WNW 21:09:55 10° SW visible
07 Apr ? 05:05:10 10° E 05:08:10 16° NE 05:11:10 10° NNE visible
07 Apr ? 20:26:03 10° N 20:31:06 64° WNW 20:36:07 10° SSW visible
07 Apr ? 22:07:16 10° NNW 22:09:19 12° NW 22:11:22 10° WNW visible
